Location: Holbach
(51.5399°N, 10.6036°E)
Time: 10:24:14
(UTC+00:00)

ATLAS CENTAUR R/B - Pass Details

Date: 24 January 2021
Orbit: 471 x 674 km, 64.6° (Epoch: 24 February)

Event Time Altitude Azimuth Distance (km) Brightness Sun altitude
Rises 05:58:12 0° 229° (SW) 2,520 4.4 -10.6°
Reaches altitude 10° 06:00:20 10° 232° (SW) 1,637 3.4 -10.3°
Maximum altitude 06:03:56 64° 315° (NW) 528 1.0 -9.7°
Drops below altitude 10° 06:07:35 10° 38° (NE) 1,655 4.0 -9.2°
Sets 06:09:45 0° 42° (NE) 2,552 5.0 -8.9°
